Home > Weather > Da Nang > Past weeks

Flag for Vietnam Weather for the Past 2 Weeks in Da Nang, Vietnam

Now
81 °F

Passing clouds.


Feels Like: 86 °F
Forecast: 81 / 92 °F
Wind: 6 mph from South

Location: Da Nang Airport

Current Time: May 6, 2016 at 12:07:37 AM

Latest Report: May 5, 2016 at 11:30 PM


Visibility: 4 mi

Pressure: 29.77 "Hg

Humidity: 84%

Dew Point: 75 °F

Location of Da NangLocation

Historic Weather in Da Nang — Graph

°F

Da Nang Temperature Yesterday

Maximum temperature yesterday: 93 °F (at 10:00 AM)
Minimum temperature yesterday: 75 °F (at 2:00 AM)
Average temperature yesterday: 83 °F

High & Low Weather Summary for the Past Weeks

 TemperatureHumidityPressure
High102 °F (Apr 27, 11:30 AM)100% (Apr 22, 1:30 AM)29.92 "Hg (Apr 22, 1:30 AM)
Low75 °F (Apr 21, 3:30 AM)45% (Apr 27, 10:30 AM)29.65 "Hg (Apr 27, 1:30 PM)
Average83 °F80%29.79 "Hg
* Reported Apr 20 11:00 PM — May 5 11:00 PM, Da Nang, Weather by CustomWeather, © 2016

Note: Actual official high and low records may vary slightly from our data, if they occured in-between our weather recording intervals... More about our weather records

Advertising

Da Nang Weather History for the Previous 24 Hours

Scroll right to see more
 ConditionsComfort  
Time TempWeatherWind HumidityBarometerVisibility
11:00 PM
Thu, May 5
82 °FPassing clouds.3 mph89%29.80 "Hg4 mi
10:30 PM82 °FPassing clouds.3 mph89%29.80 "Hg4 mi
10:00 PM82 °FPassing clouds.1 mph89%29.80 "Hg4 mi
9:30 PM82 °FPassing clouds.1 mph89%29.80 "Hg4 mi
9:00 PM81 °FPassing clouds.2 mph94%29.80 "Hg4 mi
8:30 PM81 °FPassing clouds.3 mph94%29.77 "Hg4 mi
8:00 PM81 °FPassing clouds.1 mph94%29.77 "Hg5 mi
7:30 PM82 °FPassing clouds.3 mph89%29.77 "Hg5 mi
7:00 PM82 °FPassing clouds.3 mph89%29.77 "Hg5 mi
6:30 PM82 °FPassing clouds.2 mph89%29.77 "Hg5 mi
6:00 PM82 °FPartly sunny.2 mph89%29.77 "Hg5 mi
5:30 PM82 °FPartly sunny.3 mph89%29.74 "Hg5 mi
5:00 PM82 °FPartly sunny.5 mph89%29.74 "Hg5 mi
4:30 PM82 °FPartly sunny.5 mph89%29.74 "Hg5 mi
4:00 PM84 °FPartly sunny.5 mph84%29.74 "Hg5 mi
3:30 PM84 °FThunderstorms. Partly sunny.3 mph84%29.74 "Hg5 mi
3:00 PM86 °FScattered clouds.7 mph79%29.74 "HgN/A
2:30 PM86 °FScattered clouds.9 mph79%29.74 "HgN/A
2:00 PM91 °FScattered clouds.12 mph67%29.74 "HgN/A
1:30 PM91 °FScattered clouds.12 mph67%29.74 "HgN/A
1:00 PM91 °FScattered clouds.12 mph67%29.77 "HgN/A
12:30 PM91 °FScattered clouds.10 mph63%29.80 "HgN/A
12:00 PM91 °FScattered clouds.8 mph63%29.80 "HgN/A
11:30 AM90 °FScattered clouds.7 mph67%29.83 "HgN/A
11:00 AM90 °FScattered clouds.7 mph67%29.83 "HgN/A
10:30 AM93 °FScattered clouds.6 mph59%29.83 "Hg5 mi
10:00 AM93 °FScattered clouds.3 mph59%29.86 "Hg5 mi
9:30 AM91 °FScattered clouds.3 mph59%29.86 "Hg5 mi
9:00 AM88 °FScattered clouds.3 mph66%29.86 "Hg5 mi
8:30 AM86 °FScattered clouds.5 mph75%29.86 "Hg5 mi
8:00 AM84 °FScattered clouds.6 mph74%29.86 "Hg5 mi
7:30 AM82 °FScattered clouds.5 mph79%29.86 "Hg4 mi
7:00 AM81 °FScattered clouds.1 mph84%29.83 "Hg4 mi
6:30 AM79 °FScattered clouds.No wind89%29.83 "Hg4 mi
6:00 AM77 °FPassing clouds.2 mph89%29.83 "Hg4 mi
5:30 AM75 °FPassing clouds.3 mph94%29.80 "Hg4 mi
5:00 AM75 °FPassing clouds.5 mph94%29.80 "Hg4 mi
4:30 AM75 °FPassing clouds.6 mph94%29.80 "Hg4 mi
4:00 AM75 °FPassing clouds.3 mph94%29.80 "Hg4 mi
3:30 AM75 °FPassing clouds.7 mph94%29.80 "Hg4 mi
3:00 AM75 °FPassing clouds.3 mph94%29.80 "Hg4 mi
2:30 AM75 °FPassing clouds.5 mph94%29.80 "Hg4 mi
2:00 AM75 °FPassing clouds.5 mph94%29.80 "Hg4 mi
1:30 AM77 °FPassing clouds.3 mph89%29.80 "Hg4 mi
1:00 AM77 °FPassing clouds.2 mph89%29.83 "Hg4 mi
12:30 AM77 °FFog.2 mph89%29.83 "Hg3 mi
12:00 AM77 °FFog.5 mph89%29.83 "Hg3 mi
Weather by CustomWeather, © 2016

See weather overviewHow to use our weather pages